Home > Weather > Toccoa > Past weeks

Flag for USA Weather for the Past 2 Weeks in Toccoa, Georgia, USA

Now
66 °F

Low clouds.


Feels Like: 66 °F
Forecast: 65 / 81 °F
Wind: 3 mph from East

Location: Clemson-Oconee County Airport

Current Time: May 1, 2016 at 5:04:12 AM

Latest Report: May 1, 2016 at 3:54 AM


Visibility: 10 mi

Pressure: 29.98 "Hg

Humidity: 90%

Dew Point: 63 °F

Location of ToccoaLocation

Historic Weather in Toccoa — Graph

°F

Toccoa Temperature Yesterday

Maximum temperature yesterday: 83 °F (at 2:54 PM)
Minimum temperature yesterday: 63 °F (at 3:54 AM)
Average temperature yesterday: 71 °F

High & Low Weather Summary for the Past Weeks

 TemperatureHumidityPressure
High89 °F (Apr 29, 3:54 PM)93% (Apr 23, 2:54 AM)30.42 "Hg (Apr 23, 2:54 AM)
Low48 °F (Apr 17, 2:54 AM)16% (Apr 16, 2:54 PM)29.79 "Hg (Apr 27, 4:54 PM)
Average70 °F55%30.05 "Hg
* Reported Apr 16 3:54 AM — May 1 3:02 AM, Toccoa, Weather by CustomWeather, © 2016

Note: Actual official high and low records may vary slightly from our data, if they occured in-between our weather recording intervals... More about our weather records

Advertising

Toccoa Weather History for the Previous 24 Hours

Scroll right to see more
 ConditionsComfort  
Time TempWeatherWind HumidityBarometerVisibility
3:02 AM
Sun, May 1
66 °FLow clouds.7 mph90%30.03 "Hg10 mi
2:54 AM66 °FLow clouds.6 mph90%30.00 "Hg10 mi
1:54 AM66 °FMostly cloudy.5 mph90%30.01 "Hg10 mi
12:54 AM66 °FLow clouds.6 mph90%30.03 "Hg10 mi
12:01 AM66 °FLight rain. Mostly cloudy.8 mph90%30.05 "Hg9 mi
10:54 PM
Sat, Apr 30
68 °FHeavy rain. Fog.3 mph90%30.05 "Hg3 mi
9:54 PM68 °FLight rain. Mostly cloudy.6 mph87%30.00 "Hg10 mi
8:54 PM68 °FPartly sunny.6 mph87%29.98 "Hg10 mi
7:54 PM69 °FMostly cloudy.7 mph84%29.97 "Hg10 mi
6:54 PM70 °FPartly sunny.8 mph84%29.97 "Hg10 mi
5:54 PM71 °FPartly sunny.5 mph84%29.98 "Hg10 mi
4:54 PM69 °FLight rain. Mostly cloudy.9 mph87%29.98 "Hg9 mi
3:54 PM75 °FThundershowers. Overcast.15 mph79%29.98 "Hg5 mi
2:54 PM83 °FSunny.7 mph50%29.96 "Hg10 mi
1:54 PM81 °FPassing clouds.6 mph47%30.00 "Hg10 mi
12:54 PM80 °FPartly sunny.5 mph47%30.01 "Hg10 mi
11:54 AM80 °FPassing clouds.7 mph45%30.02 "Hg10 mi
10:54 AM76 °FSunny.3 mph52%30.03 "Hg10 mi
9:54 AM73 °FPassing clouds.6 mph53%30.02 "Hg10 mi
8:54 AM70 °FSunny.5 mph55%30.00 "Hg10 mi
7:54 AM67 °FSunny.No wind61%29.97 "Hg10 mi
6:54 AM65 °FClear.6 mph63%29.96 "Hg10 mi
5:54 AM65 °FClear.5 mph63%29.95 "Hg10 mi
Weather by CustomWeather, © 2016

See weather overviewHow to use our weather pages